When you browse on this site, cookies collect data to enhance your experience and personalize the content and advertising you see.
Visit our Privacy Policy to learn more. By continuing to use the site, you agree to this use of cookies and data.
  • In Latvia
  • List of Countries
  • For 7 days
  • Water Temperature
  • Satellite Maps
  • Weather Map
  • Weather Widgets
  • user-avatar
    Login

    Hourly Weather Pustinka

    Today, 17 January, Thursday

    Time Temperature Precipitation Wind Pressure Humidity
    00:00 -8°C° 0.2 mm 5 mps 736 mmHg 92%
    01:00 -7°C° 0.2 mm 5 mps 735 mmHg 92%
    02:00 -5°C° 0.2 mm 6 mps 734 mmHg 92%
    03:00 -4°C° 0.3 mm 6 mps 733 mmHg 93%
    04:00 -3°C° 0.3 mm 6 mps 732 mmHg 93%
    05:00 -1°C° 0.3 mm 6 mps 732 mmHg 94%
    06:00 -1°C° 0.4 mm 6 mps 731 mmHg 94%
    07:00 -1°C° 0.4 mm 7 mps 731 mmHg 95%
    08:00 -1°C° 0.4 mm 7 mps 730 mmHg 95%
    09:00 -1°C° 0.2 mm 7 mps 730 mmHg 95%
    10:00 -1°C° 0.2 mm 7 mps 730 mmHg 94%
    11:00 -1°C° 0.2 mm 7 mps 730 mmHg 94%
    12:00 -2°C° 0.8 mm 7 mps 729 mmHg 92%
    13:00 -2°C° 0.8 mm 7 mps 729 mmHg 91%
    14:00 -2°C° 0.8 mm 7 mps 728 mmHg 90%
    15:00 -2°C° 0.5 mm 7 mps 728 mmHg 90%
    16:00 -2°C° 0.5 mm 7 mps 728 mmHg 90%
    17:00 -2°C° 0.5 mm 7 mps 728 mmHg 90%
    18:00 -2°C° 0.1 mm 7 mps 729 mmHg 91%
    19:00 -1°C° 0.1 mm 7 mps 729 mmHg 91%
    20:00 -1°C° 0.1 mm 6 mps 730 mmHg 92%
    21:00 -1°C° 0.1 mm 6 mps 730 mmHg 92%
    22:00 -2°C° 0.1 mm 6 mps 731 mmHg 92%
    23:00 -2°C° 0.1 mm 6 mps 732 mmHg 92%

    Tomorrow, 18 January, Friday

    Time Temperature Precipitation Wind Pressure Humidity
    00:00 -1°C° 0.4 mm 5 mps 732 mmHg 92%
    01:00 -1°C° 0.4 mm 5 mps 733 mmHg 92%
    02:00 -1°C° 0.4 mm 4 mps 733 mmHg 93%
    03:00 -2°C° 0.3 mm 3 mps 734 mmHg 93%
    04:00 -4°C° 0.3 mm 3 mps 734 mmHg 94%
    05:00 -4°C° 0.3 mm 2 mps 735 mmHg 95%
    06:00 -5°C° 0.1 mm 2 mps 735 mmHg 95%
    07:00 -5°C° 0.1 mm 2 mps 736 mmHg 95%
    08:00 -6°C° 0.1 mm 2 mps 736 mmHg 95%
    09:00 -6°C° 0.2 mm 2 mps 736 mmHg 94%
    10:00 -7°C° 0.2 mm 2 mps 736 mmHg 93%
    11:00 -7°C° 0.2 mm 2 mps 736 mmHg 93%
    12:00 -7°C° 0.2 mm 2 mps 736 mmHg 92%
    13:00 -7°C° 0.2 mm 2 mps 737 mmHg 91%
    14:00 -7°C° 0.2 mm 2 mps 737 mmHg 90%
    15:00 -7°C° 0 mm 2 mps 737 mmHg 90%
    16:00 -8°C° 0 mm 2 mps 738 mmHg 90%
    17:00 -8°C° 0 mm 2 mps 738 mmHg 90%
    18:00 -8°C° 0 mm 2 mps 739 mmHg 91%
    19:00 -9°C° 0 mm 3 mps 740 mmHg 92%
    20:00 -10°C° 0 mm 3 mps 740 mmHg 93%
    21:00 -9°C° 0 mm 3 mps 741 mmHg 93%
    22:00 -9°C° 0 mm 3 mps 741 mmHg 92%
    23:00 -9°C° 0 mm 4 mps 742 mmHg 92%

    Day after tomorrow, 19 January, Saturday

    Time Temperature Precipitation Wind Pressure Humidity
    00:00 -9°C° 0 mm 4 mps 742 mmHg 92%
    01:00 -9°C° 0 mm 4 mps 742 mmHg 92%
    02:00 -9°C° 0 mm 4 mps 743 mmHg 92%
    03:00 -9°C° 0 mm 4 mps 743 mmHg 92%
    04:00 -10°C° 0 mm 4 mps 743 mmHg 92%
    05:00 -10°C° 0 mm 4 mps 743 mmHg 91%
    06:00 -10°C° 0 mm 4 mps 744 mmHg 92%
    07:00 -10°C° 0 mm 4 mps 744 mmHg 92%
    08:00 -10°C° 0 mm 4 mps 744 mmHg 92%
    09:00 -9°C° 0 mm 4 mps 744 mmHg 91%
    10:00 -9°C° 0 mm 4 mps 745 mmHg 90%
    11:00 -8°C° 0 mm 4 mps 745 mmHg 89%
    12:00 -7°C° 0 mm 4 mps 745 mmHg 88%
    13:00 -7°C° 0 mm 4 mps 746 mmHg 86%
    14:00 -5°C° 0 mm 4 mps 746 mmHg 85%
    15:00 -7°C° 0 mm 4 mps 746 mmHg 87%
    16:00 -6°C° 0 mm 3 mps 746 mmHg 90%
    17:00 -7°C° 0 mm 3 mps 746 mmHg 93%
    18:00 -7°C° 0 mm 3 mps 746 mmHg 94%
    19:00 -8°C° 0 mm 3 mps 746 mmHg 96%
    20:00 -7°C° 0 mm 2 mps 746 mmHg 97%
    21:00 -7°C° 0 mm 2 mps 747 mmHg 96%
    22:00 -8°C° 0 mm 3 mps 747 mmHg 96%
    23:00 -8°C° 0 mm 3 mps 747 mmHg 95%

    20 January, Sunday

    Time Temperature Precipitation Wind Pressure Humidity
    00:00 -9°C° 0 mm 3 mps 747 mmHg 94%
    01:00 -9°C° 0 mm 3 mps 748 mmHg 92%
    02:00 -9°C° 0 mm 3 mps 748 mmHg 91%
    03:00 -9°C° 0 mm 3 mps 748 mmHg 91%
    04:00 -9°C° 0 mm 3 mps 748 mmHg 91%
    05:00 -10°C° 0 mm 4 mps 748 mmHg 92%
    06:00 -10°C° 0 mm 4 mps 748 mmHg 91%
    07:00 -10°C° 0 mm 4 mps 747 mmHg 91%
    08:00 -10°C° 0 mm 4 mps 747 mmHg 91%
    09:00 -9°C° 0.2 mm 4 mps 747 mmHg 92%
    10:00 -8°C° 0.2 mm 4 mps 747 mmHg 92%
    11:00 -7°C° 0.2 mm 4 mps 747 mmHg 93%
    12:00 -5°C° 0.1 mm 4 mps 747 mmHg 92%
    13:00 -5°C° 0.1 mm 4 mps 747 mmHg 91%
    14:00 -4°C° 0.1 mm 4 mps 747 mmHg 89%
    15:00 -4°C° 0.1 mm 3 mps 747 mmHg 91%
    16:00 -4°C° 0.1 mm 2 mps 746 mmHg 92%
    17:00 -4°C° 0.1 mm 2 mps 746 mmHg 93%
    18:00 -5°C° 0.5 mm 3 mps 746 mmHg 94%
    19:00 -4°C° 0.5 mm 3 mps 746 mmHg 94%
    20:00 -4°C° 0.5 mm 4 mps 745 mmHg 95%
    21:00 -5°C° 0.4 mm 4 mps 745 mmHg 93%
    22:00 -5°C° 0.4 mm 4 mps 745 mmHg 92%
    23:00 -6°C° 0.4 mm 3 mps 745 mmHg 90%

    21 January, Monday

    Time Temperature Precipitation Wind Pressure Humidity
    00:00 -7°C° 0 mm 3 mps 745 mmHg 91%
    01:00 -9°C° 0 mm 4 mps 746 mmHg 91%
    02:00 -11°C° 0 mm 4 mps 746 mmHg 91%
    03:00 -11°C° 0 mm 4 mps 746 mmHg 91%
    04:00 -12°C° 0 mm 4 mps 747 mmHg 91%
    05:00 -12°C° 0 mm 4 mps 748 mmHg 91%
    06:00 -14°C° 0 mm 4 mps 748 mmHg 92%
    07:00 -14°C° 0 mm 3 mps 749 mmHg 92%
    08:00 -15°C° 0 mm 3 mps 749 mmHg 93%
    09:00 -15°C° 0 mm 3 mps 749 mmHg 93%
    10:00 -13°C° 0 mm 2 mps 750 mmHg 92%
    11:00 -13°C° 0 mm 2 mps 750 mmHg 91%
    12:00 -12°C° 0 mm 2 mps 750 mmHg 91%
    13:00 -12°C° 0 mm 3 mps 750 mmHg 91%
    14:00 -10°C° 0 mm 3 mps 750 mmHg 91%
    15:00 -10°C° 0 mm 3 mps 750 mmHg 92%
    16:00 -12°C° 0 mm 3 mps 750 mmHg 93%
    17:00 -12°C° 0 mm 3 mps 750 mmHg 95%
    18:00 -12°C° 0 mm 3 mps 750 mmHg 95%
    19:00 -12°C° 0 mm 3 mps 750 mmHg 95%
    20:00 -12°C° 0 mm 3 mps 749 mmHg 95%
    21:00 -12°C° 0 mm 3 mps 749 mmHg 94%
    22:00 -12°C° 0 mm 3 mps 749 mmHg 93%
    23:00 -12°C° 0 mm 4 mps 749 mmHg 93%

    22 January, Tuesday

    Time Temperature Precipitation Wind Pressure Humidity
    00:00 -12°C° 0 mm 3 mps 749 mmHg 93%
    01:00 -12°C° 0 mm 3 mps 749 mmHg 93%
    02:00 -12°C° 0 mm 3 mps 749 mmHg 93%
    03:00 -10°C° 0.4 mm 3 mps 748 mmHg 94%
    04:00 -10°C° 0.4 mm 4 mps 748 mmHg 94%
    05:00 -9°C° 0.4 mm 4 mps 748 mmHg 95%
    06:00 -8°C° 0.4 mm 4 mps 748 mmHg 94%
    07:00 -7°C° 0.4 mm 4 mps 747 mmHg 94%
    08:00 -7°C° 0.4 mm 4 mps 747 mmHg 94%
    09:00 -7°C° 0.3 mm 4 mps 747 mmHg 94%
    10:00 -5°C° 0.3 mm 3 mps 748 mmHg 95%
    11:00 -5°C° 0.3 mm 3 mps 748 mmHg 95%
    12:00 -4°C° 0.2 mm 2 mps 748 mmHg 95%
    13:00 -4°C° 0.2 mm 2 mps 748 mmHg 94%
    14:00 -4°C° 0.2 mm 2 mps 748 mmHg 94%
    15:00 -6°C° 0.1 mm 2 mps 748 mmHg 94%
    16:00 -6°C° 0.1 mm 1 mps 748 mmHg 95%
    17:00 -8°C° 0.1 mm 1 mps 748 mmHg 95%
    18:00 -9°C° 0 mm 1 mps 748 mmHg 96%
    19:00 -10°C° 0 mm 1 mps 749 mmHg 96%
    20:00 -11°C° 0 mm 1 mps 749 mmHg 97%
    21:00 -11°C° 0 mm 1 mps 749 mmHg 97%
    22:00 -10°C° 0 mm 1 mps 750 mmHg 96%
    23:00 -10°C° 0 mm 1 mps 750 mmHg 96%
    Show more